TimeCDT,TemperatureF,Dew PointF,Humidity,Sea Level PressureIn,VisibilityMPH,Wind Direction,Wind SpeedMPH,Gust SpeedMPH,PrecipitationIn,Events,Conditions,WindDirDegrees,DateUTC
12:53 AM,71.1,57.0,61,29.98,10.0,South,11.5,-,0.00,,Overcast,180,2013-09-29 05:53:00
1:53 AM,70.0,57.0,63,29.97,10.0,South,8.1,-,N/A,,Overcast,180,2013-09-29 06:53:00
2:53 AM,64.9,61.0,87,29.98,10.0,SW,8.1,-,0.01,Rain,Light Rain,230,2013-09-29 07:53:00
3:26 AM,64.4,62.6,94,29.99,10.0,West,8.1,-,0.02,Rain,Rain,280,2013-09-29 08:26:00
3:53 AM,62.1,61.0,96,29.98,10.0,NW,11.5,17.3,0.04,Rain,Light Rain,320,2013-09-29 08:53:00
4:44 AM,60.8,59.0,94,30.00,10.0,NNW,9.2,18.4,0.02,Rain,Light Rain,340,2013-09-29 09:44:00
4:53 AM,60.1,59.0,96,29.99,10.0,NNW,10.4,-,0.02,Rain,Light Rain,340,2013-09-29 09:53:00
5:09 AM,60.8,57.2,88,30.01,10.0,North,16.1,25.3,0.01,Rain,Light Rain,350,2013-09-29 10:09:00
5:20 AM,57.2,55.4,94,30.01,10.0,North,9.2,-,0.01,,Overcast,10,2013-09-29 10:20:00
5:53 AM,57.9,55.0,90,30.01,10.0,NNW,8.1,-,0.01,,Overcast,340,2013-09-29 10:53:00
6:30 AM,59.0,55.4,88,30.03,10.0,NNW,6.9,-,N/A,,Overcast,340,2013-09-29 11:30:00
6:53 AM,57.9,55.0,90,30.02,10.0,NNW,8.1,-,N/A,,Overcast,340,2013-09-29 11:53:00
7:32 AM,57.2,55.4,94,30.04,10.0,NNW,6.9,-,N/A,,Mostly Cloudy,340,2013-09-29 12:32:00
7:53 AM,57.9,54.0,87,30.04,10.0,North,4.6,-,N/A,,Mostly Cloudy,350,2013-09-29 12:53:00
8:15 AM,57.2,53.6,88,30.05,10.0,NNW,8.1,-,N/A,,Scattered Clouds,340,2013-09-29 13:15:00
8:53 AM,61.0,55.0,81,30.04,10.0,North,10.4,-,N/A,,Partly Cloudy,360,2013-09-29 13:53:00
9:53 AM,64.0,53.1,67,30.04,10.0,North,10.4,17.3,N/A,,Clear,360,2013-09-29 14:53:00
10:53 AM,66.9,53.1,61,30.04,10.0,Variable,5.8,-,N/A,,Partly Cloudy,0,2013-09-29 15:53:00
11:53 AM,70.0,53.1,55,30.04,10.0,Variable,6.9,-,N/A,,Clear,0,2013-09-29 16:53:00
12:53 PM,72.0,50.0,46,30.03,10.0,NNW,6.9,-,N/A,,Clear,330,2013-09-29 17:53:00
1:53 PM,72.0,48.9,44,30.00,10.0,NNW,5.8,-,N/A,,Clear,340,2013-09-29 18:53:00
2:53 PM,73.9,48.0,40,29.99,10.0,NW,8.1,-,N/A,,Clear,320,2013-09-29 19:53:00
3:53 PM,73.9,46.9,38,29.99,10.0,Variable,3.5,-,N/A,,Clear,0,2013-09-29 20:53:00
4:53 PM,73.0,45.0,37,29.98,10.0,Calm,Calm,-,N/A,,Clear,0,2013-09-29 21:53:00
5:53 PM,71.1,46.0,41,29.99,10.0,North,4.6,-,N/A,,Clear,360,2013-09-29 22:53:00
6:53 PM,63.0,46.0,54,29.99,10.0,North,3.5,-,N/A,,Clear,360,2013-09-29 23:53:00
7:53 PM,60.1,46.9,62,30.00,10.0,North,3.5,-,N/A,,Clear,360,2013-09-30 00:53:00
8:53 PM,57.0,48.0,72,30.00,10.0,North,5.8,-,N/A,,Clear,10,2013-09-30 01:53:00
9:53 PM,60.1,48.0,64,30.00,10.0,NE,6.9,-,N/A,,Clear,40,2013-09-30 02:53:00
10:53 PM,57.0,48.9,74,30.01,10.0,ENE,5.8,-,N/A,,Clear,60,2013-09-30 03:53:00
11:53 PM,57.0,50.0,77,30.00,10.0,NE,8.1,-,N/A,,Clear,50,2013-09-30 04:53:00